This demonstration page uses our WeatherBlox Daily Observations layout. Learn more.

Left ArrowRight Arrow

44.89941, -97.11507

Hourly Observations for January 27, 2021

Temp ( °F °C ) Dew Point ( °F °C ) Humidity (%) Winds ( mph kmh ) Pressure ( in mb ) Visibility ( mi km ) Precip ( " mm )
12:53 am 00:53 Cloudy 9 -12.8 1 -17.2 70 70 ENE 3 6 30.40 1029 10 16 0.00 0.00
1:53 am 01:53 Cloudy 9 -12.8 1 -17.2 70 70 ENE 3 6 30.40 1030 10 16 0.00 0.00
2:53 am 02:53 Cloudy 8 -13.3 2 -16.7 76 76 E 6 9 30.42 1030 10 16 0.00 0.00
3:53 am 03:53 Cloudy 8 -13.3 3 -16.1 80 80 E 3 6 30.42 1030 10 16 0.00 0.00
4:53 am 04:53 Cloudy 9 -12.8 3 -16.1 77 77 Calm 30.43 1031 10 16 0.00 0.00
5:53 am 05:53 Cloudy 9 -12.8 3 -16.1 77 77 SE 5 7 30.44 1031 10 16 0.00 0.00
6:53 am 06:53 Cloudy 8 -13.3 3 -16.1 80 80 Calm 30.46 1032 10 16 0.00 0.00
7:53 am 07:53 Cloudy 8 -13.3 3 -16.1 80 80 SE 5 7 30.47 1032 10 16 0.00 0.00
8:53 am 08:53 Cloudy 9 -12.8 3 -16.1 77 77 ESE 5 7 30.48 1032 10 16 0.00 0.00
9:53 am 09:53 Cloudy 11 -11.7 3 -16.1 70 70 SSE 7 11 30.50 1033 10 16 0.00 0.00
10:53 am 10:53 Cloudy 12 -11.1 4 -15.6 70 70 SSE 10 17 30.52 1034 10 16 0.00 0.00
11:53 am 11:53 Cloudy 13 -10.6 3 -16.1 64 64 SSE 10 17 30.52 1034 10 16 0.00 0.00
12:53 pm 12:53 Cloudy 15 -9.4 4 -15.6 61 61 SSE 8 13 30.50 1033 10 16 0.00 0.00
1:53 pm 13:53 Cloudy 16 -8.9 4 -15.6 59 59 SE 12 19 30.48 1032 10 16 0.00 0.00
2:53 pm 14:53 Cloudy 16 -8.9 5 -15 62 62 SSE 13 20 30.48 1032 10 16 0.00 0.00
3:53 pm 15:53 Cloudy 17 -8.3 6 -14.4 62 62 SE 9 15 30.48 1032 10 16 0.00 0.00
4:53 pm 16:53 Cloudy 17 -8.3 8 -13.3 68 68 SSE 9 15 30.48 1032 10 16 0.00 0.00
5:53 pm 17:53 Cloudy 16 -8.9 8 -13.3 71 71 SE 10 17 30.50 1033 10 16 0.00 0.00
6:53 pm 18:53 Clear 14 -10 7 -13.9 73 73 SE 8 13 30.50 1033 10 16 0.00 0.00
7:53 pm 19:53 Clear 13 -10.6 6 -14.4 74 74 SE 8 13 30.50 1033 10 16 0.00 0.00
8:53 pm 20:53 Clear 11 -11.7 6 -14.4 81 81 SE 8 13 30.51 1033 10 16 0.00 0.00
9:53 pm 21:53 Clear 11 -11.7 7 -13.9 84 84 SSE 9 15 30.51 1033 10 16 0.00 0.00
10:53 pm 22:53 Clear 12 -11.1 7 -13.9 80 80 SE 12 19 30.49 1033 10 16 0.00 0.00
11:53 pm 23:53 Clear 11 -11.7 6 -14.4 81 81 SSE 14 22 30.50 1033 10 16 0.00 0.00

Powered by AerisWeather